Weather History for Cairns, QU

Change the Weather History Date:

Thursday, May 17, 2012

  Actual Average Record
Temperature  
Mean Temperature 74 °F -  
Max Temperature 84 °F 80 °F 84 °F (1998)
Min Temperature 64 °F 66 °F 59 °F (2002)
Cooling Degree Days 9    
Growing Degree Days 24 (Base 50)    
Moisture  
Dew Point 63 °F    
Average Humidity 67    
Maximum Humidity 89    
Minimum Humidity 38    
Precipitation  
Precipitation 0.03 in 0.10 in - ()
Sea Level Pressure  
Sea Level Pressure 29.94 in    
Wind  
Wind Speed 11 mph ()    
Max Wind Speed 17 mph    
Max Gust Speed -    
Visibility 7.4 miles    
Events Rain    
Averages and records for this station are not official NWS values.
T = Trace of Precipitation, MM = Missing Value Source: Averaged Metar Reports

Daily Weather History Graph

Daily Weather History Graph

Search for Another Location

Airport:

Trip Planner

Search our weather history database for the weather conditions in past years. The results will help you decide how hot, cold, wet, or windy it might be!

Date:

Astronomy

May. 17, 2012 Rise Set
Actual Time 6:34 AM AEST 5:52 PM AEST
Civil Twilight 6:11 AM AEST 6:15 PM AEST
Nautical Twilight 5:44 AM AEST 6:41 PM AEST
Astronomical Twilight 5:18 AM AEST 7:07 PM AEST
Moon 3:16 AM AEST (5/17) 3:14 PM AEST (5/17)
Length of Visible Light 12h 04m
Length of Day
11h 18m
Waning Crescent, 13% of the Moon is Illuminated
May 17
Waning Crescent
May 21
New
May 29
First Quarter
Jun 4
Full
Jun 11
Last Quarter

Hourly Weather History & Observations

Time (AEST) Temp. Heat Index Dew Point Humidity Pressure Visibility Wind Dir Wind Speed Gust Speed Precip Events Conditions
12:00 AM 70 °F - 50 °F 38% 29.96 in - South 9.2 mph - -  
12:00 AM 69.8 °F - 50.0 °F 49% 29.95 in 6.2 mi South 9.2 mph - N/A   Partly Cloudy
12:30 AM 66.2 °F - 51.8 °F 60% 29.95 in 6.2 mi SE 15.0 mph - N/A   Partly Cloudy
1:00 AM 70 °F - 52 °F 43% 29.95 in - SSE 8.1 mph - -  
1:00 AM 69.8 °F - 51.8 °F 53% 29.95 in 6.2 mi SSE 8.1 mph - N/A   Partly Cloudy
1:30 AM 68.0 °F - 53.6 °F 60% 29.92 in 6.2 mi South 5.8 mph - N/A   Partly Cloudy
2:00 AM 66.2 °F - 53.6 °F 64% 29.92 in 6.2 mi SE 12.7 mph - N/A   Partly Cloudy
2:30 AM 66.2 °F - 55.4 °F 68% 29.92 in 6.2 mi SE 11.5 mph - N/A   Partly Cloudy
3:00 AM 65 °F - 55 °F 62% 29.91 in - SE 16.1 mph - -  
3:00 AM 64.4 °F - 55.4 °F 73% 29.92 in 6.2 mi SE 16.1 mph - N/A   Partly Cloudy
3:30 AM 66.2 °F - 57.2 °F 73% 29.89 in 6.2 mi SE 15.0 mph - N/A   Partly Cloudy
4:00 AM 71 °F - 60 °F 61% 29.91 in - South 8.1 mph - -  
4:00 AM 71.6 °F - 60.8 °F 69% 29.89 in 6.2 mi South 8.1 mph - N/A   Partly Cloudy
4:30 AM 69.8 °F - 60.8 °F 73% 29.89 in 6.2 mi South 10.4 mph - N/A   Partly Cloudy
5:00 AM 71.6 °F - 60.8 °F 69% 29.89 in 6.2 mi South 11.5 mph - N/A   Partly Cloudy
5:30 AM 71.6 °F - 62.6 °F 73% 29.89 in 6.2 mi South 10.4 mph - N/A   Partly Cloudy
6:00 AM 71 °F - 62 °F 67% 29.92 in 19 mi South 11.5 mph - -   Partly Cloudy
6:00 AM 71.6 °F - 62.6 °F 73% 29.92 in 6.2 mi South 11.5 mph - N/A   Partly Cloudy
6:30 AM 71.6 °F - 62.6 °F 73% 29.92 in 6.2 mi South 12.7 mph - N/A   Scattered Clouds
7:00 AM 71 °F - 62 °F 67% 29.94 in - South 12.7 mph - -  
7:00 AM 71.6 °F - 62.6 °F 73% 29.92 in 6.2 mi South 12.7 mph - N/A   Scattered Clouds
7:30 AM 71.6 °F - 62.6 °F 73% 29.95 in 6.2 mi South 13.8 mph - N/A   Mostly Cloudy
8:00 AM 73.4 °F - 62.6 °F 69% 29.95 in 6.2 mi South 12.7 mph - N/A   Mostly Cloudy
8:30 AM 75.2 °F - 64.4 °F 69% 29.95 in 6.2 mi South 11.5 mph - N/A   Scattered Clouds
9:00 AM 75 °F - 65 °F 63% 29.97 in 19 mi South 12.7 mph - -   Partly Cloudy
9:00 AM 75.2 °F - 64.4 °F 69% 29.98 in 6.2 mi South 12.7 mph - N/A   Scattered Clouds
9:30 AM 77.0 °F - 66.2 °F 69% 29.98 in 6.2 mi South 12.7 mph - N/A   Scattered Clouds
10:00 AM 79 °F - 66 °F 55% 29.99 in - South 13.8 mph - -  
10:00 AM 78.8 °F - 66.2 °F 65% 29.98 in 6.2 mi South 13.8 mph - N/A   Scattered Clouds
10:30 AM 78.8 °F - 64.4 °F 61% 29.98 in 6.2 mi South 12.7 mph - N/A   Scattered Clouds
11:00 AM 80.6 °F 82.7 °F 66.2 °F 61% 29.98 in 6.2 mi SSE 12.7 mph - N/A   Scattered Clouds
11:30 AM 82.4 °F 84.6 °F 66.2 °F 58% 29.95 in 6.2 mi South 11.5 mph - N/A   Scattered Clouds
12:00 PM 82 °F - 66 °F 49% 29.95 in 19 mi SSE 12.7 mph - -   Partly Cloudy
12:00 PM 82.4 °F 84.6 °F 66.2 °F 58% 29.95 in 6.2 mi SSE 12.7 mph - N/A   Mostly Cloudy
12:30 PM 82.4 °F 83.9 °F 64.4 °F 54% 29.92 in 6.2 mi SSE 13.8 mph - N/A   Mostly Cloudy
1:00 PM 84 °F - 67 °F 46% 29.93 in - SE 10.4 mph - -  
1:00 PM 84.2 °F 86.6 °F 66.2 °F 55% 29.92 in 6.2 mi SE 10.4 mph - N/A   Mostly Cloudy
1:30 PM 82.4 °F 83.9 °F 64.4 °F 54% 29.89 in 6.2 mi SSE 13.8 mph - N/A   Mostly Cloudy
2:00 PM 82.4 °F 84.6 °F 66.2 °F 58% 29.89 in 6.2 mi SSE 15.0 mph - N/A   Mostly Cloudy
2:30 PM 80.6 °F 82.7 °F 66.2 °F 61% 29.89 in 6.2 mi SSE 15.0 mph - N/A   Mostly Cloudy
3:00 PM 82 °F - 66 °F 50% 29.89 in 19 mi SSE 17.3 mph - -   Partly Cloudy
3:00 PM 82.4 °F 84.6 °F 66.2 °F 58% 29.89 in 6.2 mi SSE 17.3 mph - N/A   Mostly Cloudy
3:30 PM 78.8 °F - 66.2 °F 65% 29.89 in 6.2 mi South 17.3 mph - N/A   Mostly Cloudy
4:00 PM 79 °F - 67 °F 58% 29.90 in - SSE 16.1 mph - -  
4:00 PM 78.8 °F - 66.2 °F 65% 29.89 in 6.2 mi SSE 16.1 mph - N/A   Mostly Cloudy
4:30 PM 77.0 °F - 66.2 °F 69% 29.89 in 6.2 mi SSE 17.3 mph - N/A   Mostly Cloudy
5:00 PM 77.0 °F - 66.2 °F 69% 29.92 in 6.2 mi SSE 16.1 mph - N/A   Mostly Cloudy
5:30 PM 77.0 °F - 66.2 °F 69% 29.92 in 6.2 mi South 13.8 mph - N/A   Mostly Cloudy
6:00 PM 75 °F - 66 °F 68% 29.93 in 19 mi South 12.7 mph - -   Partly Cloudy
6:00 PM 75.2 °F - 66.2 °F 73% 29.92 in 6.2 mi South 12.7 mph - N/A   Mostly Cloudy
6:30 PM 75.2 °F - 66.2 °F 73% 29.92 in 6.2 mi South 11.5 mph - N/A   Mostly Cloudy
7:00 PM 74 °F - 66 °F 71% 29.96 in - South 10.4 mph - -  
7:00 PM 75.2 °F - 66.2 °F 73% 29.95 in 6.2 mi South 10.4 mph - N/A   Mostly Cloudy
7:30 PM 73.4 °F - 66.2 °F 78% 29.95 in 6.2 mi South 11.5 mph - N/A   Mostly Cloudy
8:00 PM 73.4 °F - 66.2 °F 78% 29.95 in 6.2 mi South 10.4 mph - N/A   Mostly Cloudy
8:30 PM 73.4 °F - 68.0 °F 83% 29.98 in 6.2 mi South 9.2 mph - N/A   Mostly Cloudy
9:00 PM 73 °F - 67 °F 75% 29.99 in 19 mi South 9.2 mph - -   Partly Cloudy
9:00 PM 73.4 °F - 66.2 °F 78% 29.98 in 6.2 mi South 9.2 mph - N/A   Mostly Cloudy
9:28 PM 73.4 °F - 68.0 °F 83% 29.98 in 3.7 mi SSE 9.2 mph - N/A Rain Light Rain Showers
9:30 PM 73.4 °F - 68.0 °F 83% 29.98 in 3.7 mi SSE 11.5 mph - N/A Rain Light Rain Showers
10:00 PM 71 °F - 69 °F 89% 30.00 in - South 12.7 mph - -  
10:00 PM 71.6 °F - 68.0 °F 88% 29.98 in 6.2 mi South 12.7 mph - N/A Rain Light Rain Showers
10:30 PM 71.6 °F - 68.0 °F 88% 29.98 in 5.0 mi South 12.7 mph - N/A Rain Light Rain Showers
10:41 PM 71.6 °F - 68.0 °F 88% 30.01 in 3.7 mi South 10.4 mph - N/A Rain Light Rain Showers
11:00 PM 71.6 °F - 68.0 °F 88% 29.98 in 6.2 mi South 13.8 mph - N/A   Mostly Cloudy
11:30 PM 71.6 °F - 68.0 °F 88% 29.98 in 6.2 mi South 13.8 mph - N/A   Mostly Cloudy